Location: Unspecified
(40.7945°N, 111.1337°W)
Time: 05:27:06
(UTC-06:00)

Vanguard 1 - Pass Details

Date: 29 June 2019
Orbit: 653 x 3830 km, 34.3° (Epoch: 20 July)

Event Time Altitude Azimuth Distance (km) Brightness Sun altitude
Rises 08:53:41 0° 279° (W) 5,955 13.5 30.8°
Reaches altitude 10° 08:59:51 10° 264° (W) 4,247 12.9 31.9°
Maximum altitude 09:05:56 17° 228° (SW) 2,992 12.3 33.1°
Drops below altitude 10° 09:10:28 10° 190° (S) 2,979 12.5 33.9°
Sets 09:13:43 0° 169° (S) 3,574 13.1 34.6°
